Location: Lanoux
(43.1180°N, 1.4255°E)
Time: 07:13:01
(UTC+00:00)

COSMO-SKYMED 1 - Pass Details

Date: 13 December 2025
Orbit: 578 x 580 km, 97.9° (Epoch: 13 January)

Event Time Altitude Azimuth Distance (km) Brightness Sun altitude
Exits shadow 18:01:48 37° 53° (NE) 914 2.9 -17.9°
Maximum altitude 18:02:58 48° 100° (E) 758 2.6 -18.1°
Drops below altitude 10° 18:06:55 10° 175° (S) 1,885 5.1 -18.8°
Sets 18:09:07 0° 181° (S) 2,779 6.1 -19.2°
